Time,TemperatureF,DewpointF,PressureIn,WindDirection,WindDirectionDegrees,WindSpeedMPH,WindSpeedGustMPH,Humidity,HourlyPrecipIn,Conditions,Clouds,dailyrainin,SoftwareType,DateUTC
2013-01-17 00:05:00,40.0,-99.9,29.86,WSW,253,4.0,11.0,-999,-99.99,,,-99.99,,2013-01-17 05:05:00,
2013-01-17 00:12:00,40.0,-99.9,29.87,West,266,4.0,10.0,-999,-99.99,,,-99.99,,2013-01-17 05:12:00,
2013-01-17 00:22:00,40.0,-99.9,29.87,West,266,6.0,9.0,-999,-99.99,,,-99.99,,2013-01-17 05:22:00,
2013-01-17 00:33:00,40.0,-99.9,29.87,West,269,4.0,11.0,-999,-99.99,,,-99.99,,2013-01-17 05:33:00,
2013-01-17 00:43:00,40.0,-99.9,29.88,West,269,7.0,13.0,-999,-99.99,,,-99.99,,2013-01-17 05:43:00,
2013-01-17 00:53:00,40.0,-99.9,29.88,WSW,252,6.0,13.0,-999,-99.99,,,-99.99,,2013-01-17 05:53:00,
2013-01-17 01:03:00,40.0,-99.9,29.88,West,267,8.0,13.0,-999,-99.99,,,-99.99,,2013-01-17 06:03:00,
2013-01-17 01:12:00,40.0,-99.9,29.88,West,261,6.0,13.0,-999,-99.99,,,-99.99,,2013-01-17 06:12:00,
2013-01-17 01:22:00,40.0,-99.9,29.88,West,262,6.0,10.0,-999,-99.99,,,-99.99,,2013-01-17 06:22:00,
2013-01-17 01:33:00,40.0,-99.9,29.88,West,262,6.0,10.0,-999,-99.99,,,-99.99,,2013-01-17 06:33:00,
2013-01-17 01:42:00,40.0,-99.9,29.88,WSW,249,6.0,9.0,-999,-99.99,,,-99.99,,2013-01-17 06:42:00,
2013-01-17 01:53:00,40.0,-99.9,29.87,WSW,244,6.0,9.0,-999,-99.99,,,-99.99,,2013-01-17 06:53:00,
2013-01-17 02:02:00,40.0,-99.9,29.88,WSW,252,5.0,12.0,-999,-99.99,,,-99.99,,2013-01-17 07:02:00,
2013-01-17 02:12:00,40.0,-99.9,29.88,WSW,256,5.0,12.0,-999,-99.99,,,-99.99,,2013-01-17 07:12:00,
2013-01-17 02:22:00,40.0,-99.9,29.89,WSW,252,5.0,11.0,-999,-99.99,,,-99.99,,2013-01-17 07:22:00,
2013-01-17 02:33:00,40.0,-99.9,29.89,West,263,6.0,11.0,-999,-99.99,,,-99.99,,2013-01-17 07:33:00,
2013-01-17 02:43:00,40.0,-99.9,29.89,WSW,258,4.0,12.0,-999,-99.99,,,-99.99,,2013-01-17 07:43:00,
2013-01-17 02:53:00,40.0,-99.9,29.88,WSW,258,5.0,10.0,-999,-99.99,,,-99.99,,2013-01-17 07:53:00,
2013-01-17 03:02:00,40.0,-99.9,29.87,WSW,251,8.0,13.0,-999,-99.99,,,-99.99,,2013-01-17 08:02:00,
2013-01-17 03:12:00,40.0,-99.9,29.87,WSW,251,5.0,12.0,-999,-99.99,,,-99.99,,2013-01-17 08:12:00,
2013-01-17 03:22:00,40.0,-99.9,29.88,WSW,256,7.0,14.0,-999,-99.99,,,-99.99,,2013-01-17 08:22:00,
2013-01-17 03:32:00,40.0,-99.9,29.87,WSW,255,6.0,11.0,-999,-99.99,,,-99.99,,2013-01-17 08:32:00,
2013-01-17 03:44:00,40.0,-99.9,29.87,WSW,257,6.0,9.0,-999,-99.99,,,-99.99,,2013-01-17 08:44:00,
2013-01-17 03:53:00,40.0,-99.9,29.87,West,268,5.0,12.0,-999,-99.99,,,-99.99,,2013-01-17 08:53:00,
2013-01-17 04:03:00,40.0,-99.9,29.88,West,261,6.0,10.0,-999,-99.99,,,-99.99,,2013-01-17 09:03:00,
2013-01-17 04:12:00,40.0,-99.9,29.87,West,272,6.0,12.0,-999,-99.99,,,-99.99,,2013-01-17 09:12:00,
2013-01-17 04:22:00,40.0,-99.9,29.88,West,276,8.0,13.0,-999,-99.99,,,-99.99,,2013-01-17 09:22:00,
2013-01-17 04:33:00,40.0,-99.9,29.88,West,272,6.0,11.0,-999,-99.99,,,-99.99,,2013-01-17 09:33:00,
2013-01-17 04:43:00,40.0,-99.9,29.88,West,265,5.0,13.0,-999,-99.99,,,-99.99,,2013-01-17 09:43:00,
2013-01-17 04:53:00,40.0,-99.9,29.88,West,273,6.0,14.0,-999,-99.99,,,-99.99,,2013-01-17 09:53:00,
2013-01-17 05:02:00,40.0,-99.9,29.88,West,260,6.0,10.0,-999,-99.99,,,-99.99,,2013-01-17 10:02:00,
2013-01-17 05:12:00,40.0,-99.9,29.88,WSW,257,6.0,11.0,-999,-99.99,,,-99.99,,2013-01-17 10:12:00,
2013-01-17 05:22:00,40.0,-99.9,29.88,West,263,6.0,10.0,-999,-99.99,,,-99.99,,2013-01-17 10:22:00,
2013-01-17 05:33:00,40.0,-99.9,29.88,West,273,6.0,11.0,-999,-99.99,,,-99.99,,2013-01-17 10:33:00,
2013-01-17 05:43:00,40.0,-99.9,29.88,WSW,254,6.0,11.0,-999,-99.99,,,-99.99,,2013-01-17 10:43:00,
2013-01-17 05:53:00,39.0,-99.9,29.88,West,273,6.0,9.0,-999,-99.99,,,-99.99,,2013-01-17 10:53:00,
2013-01-17 06:03:00,40.0,-99.9,29.89,WSW,258,4.0,10.0,-999,-99.99,,,-99.99,,2013-01-17 11:03:00,
2013-01-17 06:12:00,39.0,-99.9,29.89,WNW,282,4.0,10.0,-999,-99.99,,,-99.99,,2013-01-17 11:12:00,
2013-01-17 06:23:00,39.0,-99.9,29.89,West,279,5.0,10.0,-999,-99.99,,,-99.99,,2013-01-17 11:23:00,
2013-01-17 06:33:00,39.0,-99.9,29.90,West,279,7.0,11.0,-999,-99.99,,,-99.99,,2013-01-17 11:33:00,
2013-01-17 06:43:00,40.0,-99.9,29.90,West,274,5.0,13.0,-999,-99.99,,,-99.99,,2013-01-17 11:43:00,
2013-01-17 06:53:00,40.0,-99.9,29.89,West,274,5.0,8.0,-999,-99.99,,,-99.99,,2013-01-17 11:53:00,
2013-01-17 07:03:00,39.0,-99.9,29.91,WNW,288,4.0,8.0,-999,-99.99,,,-99.99,,2013-01-17 12:03:00,
2013-01-17 07:12:00,39.0,-99.9,29.91,West,262,3.0,7.0,-999,-99.99,,,-99.99,,2013-01-17 12:12:00,
2013-01-17 07:23:00,39.0,-99.9,29.92,West,279,4.0,6.0,-999,-99.99,,,-99.99,,2013-01-17 12:23:00,
2013-01-17 07:33:00,38.0,-99.9,29.91,West,276,4.0,7.0,-999,-99.99,,,-99.99,,2013-01-17 12:33:00,
2013-01-17 07:43:00,38.0,-99.9,29.93,West,271,4.0,9.0,-999,-99.99,,,-99.99,,2013-01-17 12:43:00,
2013-01-17 07:53:00,38.0,-99.9,29.93,WNW,282,4.0,6.0,-999,-99.99,,,-99.99,,2013-01-17 12:53:00,
2013-01-17 08:03:00,38.0,-99.9,29.94,West,264,6.0,11.0,-999,-99.99,,,-99.99,,2013-01-17 13:03:00,
2013-01-17 08:13:00,39.0,-99.9,29.93,WNW,282,5.0,10.0,-999,-99.99,,,-99.99,,2013-01-17 13:13:00,
2013-01-17 08:23:00,39.0,-99.9,29.95,West,274,5.0,11.0,-999,-99.99,,,-99.99,,2013-01-17 13:23:00,
2013-01-17 08:33:00,39.0,-99.9,29.95,WNW,297,9.0,15.0,-999,-99.99,,,-99.99,,2013-01-17 13:33:00,
2013-01-17 08:43:00,40.0,-99.9,29.96,WNW,297,10.0,14.0,-999,-99.99,,,-99.99,,2013-01-17 13:43:00,
2013-01-17 08:53:00,40.0,-99.9,29.97,WNW,288,7.0,16.0,-999,-99.99,,,-99.99,,2013-01-17 13:53:00,
2013-01-17 09:03:00,39.0,-99.9,29.98,West,281,8.0,13.0,-999,-99.99,,,-99.99,,2013-01-17 14:03:00,
2013-01-17 09:13:00,39.0,-99.9,29.98,West,281,5.0,13.0,-999,-99.99,,,-99.99,,2013-01-17 14:13:00,
2013-01-17 09:23:00,39.0,-99.9,29.99,West,281,9.0,13.0,-999,-99.99,,,-99.99,,2013-01-17 14:23:00,
2013-01-17 09:33:00,40.0,-99.9,30.00,West,278,9.0,16.0,-999,-99.99,,,-99.99,,2013-01-17 14:33:00,
2013-01-17 09:43:00,41.0,-99.9,30.00,West,276,7.0,13.0,-999,-99.99,,,-99.99,,2013-01-17 14:43:00,
2013-01-17 09:53:00,40.0,-99.9,30.00,WNW,293,11.0,16.0,-999,-99.99,,,-99.99,,2013-01-17 14:53:00,
2013-01-17 10:03:00,40.0,-99.9,30.01,WNW,295,9.0,17.0,-999,-99.99,,,-99.99,,2013-01-17 15:03:00,
2013-01-17 10:13:00,40.0,-99.9,30.00,WNW,291,8.0,18.0,-999,-99.99,,,-99.99,,2013-01-17 15:13:00,
2013-01-17 10:23:00,40.0,-99.9,30.01,WNW,299,10.0,15.0,-999,-99.99,,,-99.99,,2013-01-17 15:23:00,
2013-01-17 10:33:00,40.0,-99.9,30.01,WNW,299,12.0,18.0,-999,-99.99,,,-99.99,,2013-01-17 15:33:00,
2013-01-17 10:44:00,40.0,-99.9,30.00,WNW,301,11.0,20.0,-999,-99.99,,,-99.99,,2013-01-17 15:44:00,
2013-01-17 10:53:00,40.0,-99.9,30.01,WNW,296,12.0,20.0,-999,-99.99,,,-99.99,,2013-01-17 15:53:00,
2013-01-17 11:03:00,40.0,-99.9,30.00,NW,307,11.0,16.0,-999,-99.99,,,-99.99,,2013-01-17 16:03:00,
2013-01-17 11:13:00,41.0,-99.9,30.01,WNW,296,10.0,15.0,-999,-99.99,,,-99.99,,2013-01-17 16:13:00,
2013-01-17 11:23:00,40.0,-99.9,30.00,WNW,292,11.0,19.0,-999,-99.99,,,-99.99,,2013-01-17 16:23:00,
2013-01-17 11:34:00,40.0,-99.9,29.98,WNW,297,10.0,18.0,-999,-99.99,,,-99.99,,2013-01-17 16:34:00,
2013-01-17 11:44:00,40.0,-99.9,29.98,WNW,301,8.0,15.0,-999,-99.99,,,-99.99,,2013-01-17 16:44:00,
2013-01-17 11:53:00,40.0,-99.9,29.98,WNW,296,11.0,16.0,-999,-99.99,,,-99.99,,2013-01-17 16:53:00,
2013-01-17 12:03:00,40.0,-99.9,29.97,WNW,298,10.0,17.0,-999,-99.99,,,-99.99,,2013-01-17 17:03:00,
2013-01-17 12:13:00,40.0,-99.9,29.97,WNW,293,13.0,15.0,-999,-99.99,,,-99.99,,2013-01-17 17:13:00,
2013-01-17 12:23:00,40.0,-99.9,29.98,NW,306,11.0,15.0,-999,-99.99,,,-99.99,,2013-01-17 17:23:00,
2013-01-17 12:33:00,40.0,-99.9,29.97,NW,307,8.0,16.0,-999,-99.99,,,-99.99,,2013-01-17 17:33:00,
2013-01-17 12:43:00,40.0,-99.9,29.98,WNW,301,8.0,16.0,-999,-99.99,,,-99.99,,2013-01-17 17:43:00,
2013-01-17 12:54:00,40.0,-99.9,29.98,WNW,299,9.0,19.0,-999,-99.99,,,-99.99,,2013-01-17 17:54:00,
2013-01-17 13:04:00,40.0,-99.9,29.98,WNW,302,8.0,14.0,-999,-99.99,,,-99.99,,2013-01-17 18:04:00,
2013-01-17 13:13:00,40.0,-99.9,29.99,NW,307,6.0,12.0,-999,-99.99,,,-99.99,,2013-01-17 18:13:00,
2013-01-17 13:23:00,40.0,-99.9,29.98,WNW,300,8.0,14.0,-999,-99.99,,,-99.99,,2013-01-17 18:23:00,
2013-01-17 13:34:00,40.0,-99.9,29.98,WNW,295,7.0,14.0,-999,-99.99,,,-99.99,,2013-01-17 18:34:00,
2013-01-17 13:44:00,40.0,-99.9,29.98,NW,310,9.0,14.0,-999,-99.99,,,-99.99,,2013-01-17 18:44:00,
2013-01-17 13:54:00,40.0,-99.9,29.99,WNW,299,8.0,14.0,-999,-99.99,,,-99.99,,2013-01-17 18:54:00,
2013-01-17 14:04:00,40.0,-99.9,29.99,NW,304,7.0,15.0,-999,-99.99,,,-99.99,,2013-01-17 19:04:00,
2013-01-17 14:13:00,40.0,-99.9,29.99,NW,307,9.0,15.0,-999,-99.99,,,-99.99,,2013-01-17 19:13:00,
2013-01-17 14:23:00,40.0,-99.9,30.00,NW,304,6.0,14.0,-999,-99.99,,,-99.99,,2013-01-17 19:23:00,
2013-01-17 14:33:00,41.0,-99.9,30.00,NW,304,5.0,14.0,-999,-99.99,,,-99.99,,2013-01-17 19:33:00,
2013-01-17 14:43:00,41.0,-99.9,30.01,WNW,294,6.0,13.0,-999,-99.99,,,-99.99,,2013-01-17 19:43:00,
2013-01-17 14:54:00,41.0,-99.9,30.01,WNW,300,6.0,14.0,-999,-99.99,,,-99.99,,2013-01-17 19:54:00,
2013-01-17 15:03:00,41.0,-99.9,30.00,NW,309,8.0,13.0,-999,-99.99,,,-99.99,,2013-01-17 20:03:00,
2013-01-17 15:13:00,41.0,-99.9,30.01,WNW,285,6.0,11.0,-999,-99.99,,,-99.99,,2013-01-17 20:13:00,
2013-01-17 15:23:00,41.0,-99.9,30.01,WNW,295,7.0,11.0,-999,-99.99,,,-99.99,,2013-01-17 20:23:00,
2013-01-17 15:34:00,41.0,-99.9,30.02,NW,308,5.0,9.0,-999,-99.99,,,-99.99,,2013-01-17 20:34:00,
2013-01-17 15:44:00,41.0,-99.9,30.01,WNW,298,3.0,9.0,-999,-99.99,,,-99.99,,2013-01-17 20:44:00,
2013-01-17 15:54:00,41.0,-99.9,30.02,West,276,3.0,6.0,-999,-99.99,,,-99.99,,2013-01-17 20:54:00,
2013-01-17 16:03:00,41.0,-99.9,30.02,West,268,4.0,6.0,-999,-99.99,,,-99.99,,2013-01-17 21:03:00,
2013-01-17 16:13:00,41.0,-99.9,30.02,WSW,246,2.0,6.0,-999,-99.99,,,-99.99,,2013-01-17 21:13:00,
2013-01-17 16:24:00,40.0,-99.9,30.02,SW,234,3.0,4.0,-999,-99.99,,,-99.99,,2013-01-17 21:24:00,
2013-01-17 16:34:00,40.0,-99.9,30.03,WSW,248,3.0,9.0,-999,-99.99,,,-99.99,,2013-01-17 21:34:00,
2013-01-17 16:43:00,40.0,-99.9,30.04,WSW,243,3.0,5.0,-999,-99.99,,,-99.99,,2013-01-17 21:43:00,
2013-01-17 16:53:00,40.0,-99.9,30.04,West,280,2.0,6.0,-999,-99.99,,,-99.99,,2013-01-17 21:53:00,
2013-01-17 17:04:00,40.0,-99.9,30.04,West,262,3.0,5.0,-999,-99.99,,,-99.99,,2013-01-17 22:04:00,
2013-01-17 17:12:00,40.0,-99.9,30.04,West,279,2.0,4.0,-999,-99.99,,,-99.99,,2013-01-17 22:12:00,
2013-01-17 17:23:00,40.0,-99.9,30.04,West,260,2.0,5.0,-999,-99.99,,,-99.99,,2013-01-17 22:23:00,
2013-01-17 17:33:00,40.0,-99.9,30.04,West,260,3.0,4.0,-999,-99.99,,,-99.99,,2013-01-17 22:33:00,
2013-01-17 17:43:00,40.0,-99.9,30.05,WSW,245,3.0,4.0,-999,-99.99,,,-99.99,,2013-01-17 22:43:00,
2013-01-17 17:53:00,40.0,-99.9,30.06,SW,231,2.0,4.0,-999,-99.99,,,-99.99,,2013-01-17 22:53:00,
2013-01-17 18:03:00,40.0,-99.9,30.06,SSW,200,3.0,4.0,-999,-99.99,,,-99.99,,2013-01-17 23:03:00,
2013-01-17 18:12:00,40.0,-99.9,30.05,WSW,243,2.0,3.0,-999,-99.99,,,-99.99,,2013-01-17 23:12:00,
2013-01-17 18:23:00,40.0,-99.9,30.05,WSW,250,3.0,3.0,-999,-99.99,,,-99.99,,2013-01-17 23:23:00,
2013-01-17 18:33:00,40.0,-99.9,30.05,WSW,242,2.0,4.0,-999,-99.99,,,-99.99,,2013-01-17 23:33:00,
2013-01-17 18:43:00,40.0,-99.9,30.04,West,267,2.0,2.0,-999,-99.99,,,-99.99,,2013-01-17 23:43:00,
2013-01-17 18:53:00,40.0,-99.9,30.06,WSW,239,2.0,4.0,-999,-99.99,,,-99.99,,2013-01-17 23:53:00,
2013-01-17 19:03:00,40.0,-99.9,30.06,South,191,1.0,3.0,-999,-99.99,,,-99.99,,2013-01-18 00:03:00,
2013-01-17 19:13:00,40.0,-99.9,30.06,SSW,212,2.0,2.0,-999,-99.99,,,-99.99,,2013-01-18 00:13:00,
2013-01-17 19:23:00,40.0,-99.9,30.06,WSW,239,2.0,3.0,-999,-99.99,,,-99.99,,2013-01-18 00:23:00,
2013-01-17 19:33:00,40.0,-99.9,30.06,WSW,239,2.0,3.0,-999,-99.99,,,-99.99,,2013-01-18 00:33:00,
2013-01-17 19:43:00,40.0,-99.9,30.05,West,264,1.0,3.0,-999,-99.99,,,-99.99,,2013-01-18 00:43:00,
2013-01-17 19:53:00,40.0,-99.9,30.06,West,272,2.0,4.0,-999,-99.99,,,-99.99,,2013-01-18 00:53:00,
2013-01-17 20:03:00,39.0,-99.9,30.05,NW,304,3.0,3.0,-999,-99.99,,,-99.99,,2013-01-18 01:03:00,
2013-01-17 20:13:00,40.0,-99.9,30.06,WNW,301,4.0,6.0,-999,-99.99,,,-99.99,,2013-01-18 01:13:00,
2013-01-17 20:23:00,40.0,-99.9,30.05,NNW,327,2.0,6.0,-999,-99.99,,,-99.99,,2013-01-18 01:23:00,
2013-01-17 20:33:00,40.0,-99.9,30.04,NW,317,4.0,6.0,-999,-99.99,,,-99.99,,2013-01-18 01:33:00,
2013-01-17 20:43:00,40.0,-99.9,30.04,NW,326,3.0,6.0,-999,-99.99,,,-99.99,,2013-01-18 01:43:00,
2013-01-17 20:53:00,40.0,-99.9,30.04,NNW,334,4.0,8.0,-999,-99.99,,,-99.99,,2013-01-18 01:53:00,
2013-01-17 21:03:00,40.0,-99.9,30.03,NNW,339,6.0,10.0,-999,-99.99,,,-99.99,,2013-01-18 02:03:00,
2013-01-17 21:12:00,40.0,-99.9,30.04,NNW,333,7.0,11.0,-999,-99.99,,,-99.99,,2013-01-18 02:12:00,
2013-01-17 21:23:00,40.0,-99.9,30.03,NNW,339,6.0,9.0,-999,-99.99,,,-99.99,,2013-01-18 02:23:00,
2013-01-17 21:33:00,40.0,-99.9,30.04,NNW,330,7.0,11.0,-999,-99.99,,,-99.99,,2013-01-18 02:33:00,
2013-01-17 21:43:00,40.0,-99.9,30.03,NNW,340,9.0,15.0,-999,-99.99,,,-99.99,,2013-01-18 02:43:00,
2013-01-17 21:53:00,40.0,-99.9,30.04,NNW,333,10.0,14.0,-999,-99.99,,,-99.99,,2013-01-18 02:53:00,
2013-01-17 22:03:00,40.0,-99.9,30.03,NNW,337,9.0,15.0,-999,-99.99,,,-99.99,,2013-01-18 03:03:00,
2013-01-17 22:13:00,40.0,-99.9,30.04,NNW,339,11.0,14.0,-999,-99.99,,,-99.99,,2013-01-18 03:13:00,
2013-01-17 22:23:00,40.0,-99.9,30.04,NNW,348,9.0,15.0,-999,-99.99,,,-99.99,,2013-01-18 03:23:00,
2013-01-17 22:33:00,40.0,-99.9,30.03,North,354,10.0,16.0,-999,-99.99,,,-99.99,,2013-01-18 03:33:00,
2013-01-17 22:43:00,40.0,-99.9,30.03,North,4,10.0,14.0,-999,-99.99,,,-99.99,,2013-01-18 03:43:00,
2013-01-17 22:53:00,39.0,-99.9,30.02,North,5,10.0,14.0,-999,-99.99,,,-99.99,,2013-01-18 03:53:00,
2013-01-17 23:03:00,39.0,-99.9,30.03,North,1,10.0,14.0,-999,-99.99,,,-99.99,,2013-01-18 04:03:00,
2013-01-17 23:12:00,39.0,-99.9,30.02,North,3,9.0,15.0,-999,-99.99,,,-99.99,,2013-01-18 04:12:00,
2013-01-17 23:22:00,39.0,-99.9,30.01,North,7,12.0,14.0,-999,-99.99,,,-99.99,,2013-01-18 04:22:00,
2013-01-17 23:33:00,37.0,-99.9,30.01,North,6,16.0,22.0,-999,-99.99,,,-99.99,,2013-01-18 04:33:00,
2013-01-17 23:43:00,37.0,-99.9,30.00,North,4,18.0,24.0,-999,-99.99,,,-99.99,,2013-01-18 04:43:00,
2013-01-17 23:53:00,37.0,-99.9,29.99,North,9,15.0,22.0,-999,-99.99,,,-99.99,,2013-01-18 04:53:00,